Charlotte Douglas International Airport Charlotte US
ICAO: KCLT
IATA: CLT
Category: Large
Scheduled Services: Yes

Elevation: 748 ft
TransAlt. 18000 ft.

Airport Communications:
APP/DEP:120.05
ATIS:121.15
CLNC DEL:127.15
GND:121.8
BASE OPS COMD POST:29.22
RALEIGH RDO:122.4
TWR:118.1
UNICOM:122.95

KCLT Zoom In..

If Map Doesn't Load, Click Here

Runways:

(A) RW 05 length 7502 ft width 150 ft
ILS 110.95 / hdg 55

(B) RW 18C length 10000 ft width 150 ft
ILS 111.30 / hdg 183

(C) RW 18L length 8676 ft width 150 ft
ILS 110.35 / hdg 183

(D) RW 18R length 9000 ft width 150 ft
ILS 110.15 / hdg 183

(E) RW 23 length 7502 ft width 150 ft
ILS 109.50 / hdg 235

(F) RW 36C length 10000 ft width 150 ft
ILS 111.70 / hdg 3

(G) RW 36L length 9000 ft width 150 ft
ILS 110.15 / hdg 3

(H) RW 36R length 8676 ft width 150 ft
ILS 108.90 / hdg 3

Location; KCLT
Day. 23 / Time. 07.52 Zulu
* Altimeter: 30.09
* Temperature: 21° c. 69.8°f.
* Wind from: 000° Speed 00 kn.
Dewpoint: 20° c.
Visibility: 8 Statute Miles.
Clouds: Few 25000 ft.

KCLT 230752Z 00000KT 8SM FEW250 21/20 A3009 RMK AO2 SLP179 T02110200


Wind - Calm.

 
 
jpsmedia.com for Web Design worldairports.se 2018   terms of use